CHINASAT 19 (ZX 19) (54230 NORAD) Tracking and Keplerian Element Data

This shows tracking and keplerian element data for the satellite.

Feedback or suggestion? Click here.




ElementValue
Catalog54230
NameCHINASAT 19 (ZX 19)
Epoch Orbit83
Epoch Day14.23938135
Epoch Year2023
RAAN114.7261
Inclination0.029
Eccentricity0.0006966
Argument of Perigee155.4439
Mean Anonmoly92.8729
Mean Motion1.00271893
Decay Rate-5.8E-07
L11 54230U 22148A 23014.23938135 -.00000058 00000+0 00000+0 0 9997
L22 54230 0.0290 114.7261 0006966 155.4439 92.8729 1.00271893 836



Live tracking and technical data element details for CHINASAT 19 (ZX 19) (NORAD 54230). CHINASAT 19 (ZX 19) can be tracked NOW for your location showing map with azimuth and elevation plus other details from your city location.







IsCatalogInMostPopularTable: catalog: 54230, numindb: 14
Update: records affected: 1



GetName: 54230 CHINASAT 19 (ZX 19)

Hit Count: updated at: Fri, 27 Jan 2023 21:55:03 GMT